Weather in Peresypkino 1-ye

Russia / Tambov Oblast     52°54′39″N   42°54′07″E
temp.,
°C
wind,
m/s
gust,
m/s
humid.,
%
clouds,
%
prec.,
mm/h
press.,
hPa
HPBL,
m
4 march, thu
thu400:00−5wsw5119686 0.1 1012259
03:00−2wsw6129392 0.1 1010562
06:00−2wsw71394100 0.1 1008690
09:00−1wsw91593100 0.4 1006773
12:000wsw91691100 0.1 1005698
15:00+1wsw91585100 0.1 1003924
18:000wsw71488100 0.0 1002848
21:000wsw61293100 0.1 1002678
5 march, fri
fri500:00−1wsw61194100 0.1 1001497
03:00−1wsw51096100 0.3 1001470
06:00−2w4997100 0.4 1002380
09:00−3n4794100 0.6 1005443
12:00−2nnw359097 0.0 1007495
15:00−2wnw468791 0.1 1010670
18:00−7wnw34906 0.0 101239
21:00−9wnw349240 0.0 101440
6 march, sat
sat600:00−9wnw339468 0.0 101533
03:00−10nw239283 0.0 101621
06:00−11n2290100 0.0 101621
09:00−9ne2391100 0.0 101691
12:00−6ne2286100 0.0 1016255
15:00−5ene128686 0.0 1015364
18:00−10e12934 0.0 101521
21:00−12se129337 0.0 101621
7 march, sun
sun700:00−12sw239296 0.0 101521
03:00−11sw359698 0.2 1016101
06:00−11wsw369781 0.1 1016129
09:00−10wsw5109380 0.1 1015315
12:00−7sw8138571 0.0 1012685
15:00−5sw9168086 0.0 10091107
18:00−5sw101890100 0.1 10041159
21:00−3wsw101694100 1.6 10031086
8 march, mon
mon800:00−5w51183100 1.2 1003414
03:00−10w348584 1.2 100443
06:00−11ssw478288 0.0 1003100
09:00−5ssw599695 0.4 1000442
12:00−3wsw81387100 0.9 9991346
15:00−6w9157294 1.3 10021438
18:00−9w8168150 0.1 1006784
21:00−10w6138865 0.1 1010509